| time (UTC) | temp F | wind direction | speed MPH | gust MPH | rain 1hr in | rain 24hr in | rain mn in | humidity % | barometer mb |
| 20260507020026 | 45 | 306 | 5.0 | 10.0 | 0.00 | 0.87 | 0.72 | 1 | 1014.1 |
| 20260507014525 | 45 | 330 | 5.0 | 12.0 | 0.00 | 0.97 | 0.72 | 1 | 1013.7 |
| 20260507013017 | 46 | 321 | 8.0 | 13.0 | 0.01 | 0.97 | 0.72 | 1 | 1013.7 |
| 20260507011513 | 47 | 317 | 8.0 | 12.0 | 0.01 | 0.97 | 0.72 | 1 | 1013.7 |
| 20260507010024 | 47 | 290 | 9.0 | 13.0 | 0.01 | 0.97 | 0.72 | 1 | 1013.5 |
| 20260507004503 | 48 | 279 | 7.0 | 11.0 | 0.01 | 1.04 | 0.72 | 1 | 1013.1 |
| 20260507003100 | 48 | 273 | 4.0 | 9.0 | 0.00 | 1.03 | 0.71 | 1 | 1012.9 |
| 20260507001610 | 48 | 188 | 0.0 | 2.0 | 0.00 | 1.03 | 0.71 | 1 | 1012.4 |
| 20260507000050 | 48 | 135 | 0.0 | 2.0 | 0.00 | 1.03 | 0.71 | 1 | 1012.4 |
| 20260506234555 | 48 | 135 | 0.0 | 1.0 | 0.00 | 1.05 | 0.71 | 1 | 1012.4 |
| 20260506233043 | 48 | 135 | 0.0 | 2.0 | 0.00 | 1.05 | 0.71 | 1 | 1012.1 |
| 20260506231540 | 49 | 135 | 0.0 | 1.0 | 0.00 | 1.05 | 0.71 | 1 | 1012.2 |
| 20260506224612 | 48 | 44 | 0.0 | 2.0 | 0.00 | 1.05 | 0.71 | 1 | 1011.9 |
| 20260506223058 | 48 | 83 | 0.0 | 2.0 | 0.00 | 1.05 | 0.71 | 1 | 1011.8 |
| 20260506221548 | 48 | 159 | 1.0 | 4.0 | 0.00 | 1.05 | 0.71 | 1 | 1011.5 |
| 20260506220056 | 48 | 96 | 1.0 | 3.0 | 0.00 | 1.05 | 0.71 | 1 | 1011.8 |
| 20260506214540 | 48 | 329 | 1.0 | 3.0 | 0.00 | 1.05 | 0.71 | 1 | 1011.8 |
| 20260506213035 | 48 | 355 | 1.0 | 3.0 | 0.00 | 1.05 | 0.71 | 1 | 1011.8 |
| 20260506211531 | 48 | 355 | 1.0 | 3.0 | 0.00 | 1.05 | 0.71 | 1 | 1011.6 |
| 20260506210026 | 48 | 320 | 1.0 | 5.0 | 0.00 | 1.05 | 0.71 | 1 | 1011.5 |
| 20260506204523 | 47 | 311 | 1.0 | 4.0 | 0.00 | 1.05 | 0.71 | 1 | 1011.4 |
| 20260506203018 | 47 | 298 | 3.0 | 5.0 | 0.00 | 1.05 | 0.71 | 1 | 1011.7 |
| 20260506201515 | 46 | 350 | 3.0 | 8.0 | 0.00 | 1.05 | 0.71 | 1 | 1011.7 |
| 20260506200009 | 46 | 333 | 4.0 | 8.0 | 0.00 | 1.05 | 0.71 | 1 | 1011.7 |
| 20260506194507 | 46 | 5 | 3.0 | 9.0 | 0.00 | 1.05 | 0.71 | 1 | 1011.3 |
| 20260506193005 | 46 | 58 | 3.0 | 6.0 | 0.00 | 1.05 | 0.71 | 1 | 1011.2 |
| 20260506191501 | 46 | 344 | 2.0 | 6.0 | 0.00 | 1.05 | 0.71 | 1 | 1011.4 |
| 20260506190056 | 46 | 355 | 2.0 | 9.0 | 0.00 | 1.05 | 0.71 | 1 | 1011.4 |
| 20260506184552 | 46 | 348 | 5.0 | 9.0 | 0.00 | 1.05 | 0.71 | 1 | 1011.2 |
| 20260506183049 | 46 | 323 | 5.0 | 9.0 | 0.00 | 1.05 | 0.71 | 1 | 1011.0 |
| 20260506181558 | 46 | 355 | 4.0 | 8.0 | 0.00 | 1.05 | 0.71 | 1 | 1011.0 |
| 20260506180040 | 46 | 355 | 3.0 | 9.0 | 0.00 | 1.05 | 0.71 | 1 | 1011.1 |
| 20260506174536 | 46 | 360 | 5.0 | 8.0 | 0.00 | 1.05 | 0.71 | 1 | 1010.8 |
| 20260506173046 | 46 | 355 | 3.0 | 9.0 | 0.00 | 1.05 | 0.71 | 1 | 1010.6 |
| 20260506171535 | 46 | 351 | 3.0 | 9.0 | 0.00 | 1.05 | 0.71 | 1 | 1010.4 |
| 20260506170035 | 46 | 344 | 3.0 | 8.0 | 0.00 | 1.05 | 0.71 | 1 | 1010.2 |
| 20260506164534 | 46 | 17 | 5.0 | 8.0 | 0.00 | 1.05 | 0.71 | 1 | 1010.2 |
| 20260506163035 | 46 | 351 | 3.0 | 8.0 | 0.00 | 1.05 | 0.71 | 1 | 1010.0 |
| 20260506161533 | 46 | 14 | 3.0 | 6.0 | 0.01 | 1.05 | 0.71 | 1 | 1010.0 |
| 20260506160038 | 46 | 360 | 2.0 | 6.0 | 0.01 | 1.05 | 0.71 | 1 | 1010.1 |
| 20260506154532 | 45 | 335 | 2.0 | 5.0 | 0.02 | 1.05 | 0.71 | 1 | 1010.2 |
| 20260506153031 | 45 | 331 | 1.0 | 5.0 | 0.02 | 1.05 | 0.71 | 1 | 1010.2 |
| 20260506151531 | 45 | 344 | 1.0 | 5.0 | 0.01 | 1.04 | 0.70 | 1 | 1010.3 |
| 20260506150030 | 45 | 5 | 1.0 | 4.0 | 0.01 | 1.04 | 0.70 | 1 | 1010.2 |
| 20260506144530 | 44 | 57 | 3.0 | 5.0 | 0.00 | 1.03 | 0.69 | 1 | 1009.9 |
| 20260506143033 | 44 | 5 | 2.0 | 4.0 | 0.00 | 1.03 | 0.69 | 1 | 1009.7 |
| 20260506141524 | 44 | 65 | 3.0 | 7.0 | 0.00 | 1.03 | 0.69 | 1 | 1009.7 |
| 20260506140019 | 44 | 67 | 3.0 | 6.0 | 0.01 | 1.03 | 0.69 | 1 | 1009.7 |
| 20260506134520 | 44 | 42 | 4.0 | 9.0 | 0.01 | 1.03 | 0.69 | 1 | 1009.7 |
| 20260506133011 | 44 | 76 | 3.0 | 6.0 | 0.02 | 1.03 | 0.69 | 1 | 1009.6 |
| 20260506131516 | 44 | 45 | 3.0 | 9.0 | 0.04 | 1.03 | 0.69 | 1 | 1009.7 |
| 20260506130003 | 44 | 50 | 2.0 | 6.0 | 0.04 | 1.02 | 0.68 | 1 | 1009.6 |
| 20260506124600 | 44 | 49 | 2.0 | 4.0 | 0.05 | 1.02 | 0.68 | 1 | 1009.8 |
| 20260506123053 | 44 | 65 | 2.0 | 3.0 | 0.06 | 1.01 | 0.67 | 1 | 1009.8 |
| 20260506121548 | 44 | 34 | 2.0 | 5.0 | 0.04 | 0.99 | 0.65 | 1 | 1009.8 |
| 20260506120043 | 44 | 50 | 3.0 | 9.0 | 0.04 | 0.98 | 0.64 | 1 | 1009.8 |
| 20260506114539 | 44 | 48 | 2.0 | 8.0 | 0.04 | 0.97 | 0.63 | 1 | 1009.5 |
| 20260506113035 | 44 | 86 | 4.0 | 9.0 | 0.04 | 0.95 | 0.61 | 1 | 1009.3 |
| 20260506111530 | 44 | 73 | 5.0 | 11.0 | 0.08 | 0.95 | 0.61 | 1 | 1009.4 |
| 20260506110026 | 44 | 73 | 7.0 | 12.0 | 0.08 | 0.94 | 0.60 | 1 | 1009.5 |
| 20260506104521 | 44 | 68 | 5.0 | 10.0 | 0.10 | 0.94 | 0.59 | 1 | 1009.4 |
| 20260506103029 | 44 | 14 | 2.0 | 7.0 | 0.09 | 0.92 | 0.56 | 1 | 1009.6 |
| 20260506101512 | 44 | 59 | 4.0 | 10.0 | 0.06 | 0.88 | 0.53 | 1 | 1009.5 |
| 20260506100011 | 44 | 72 | 6.0 | 11.0 | 0.07 | 0.87 | 0.52 | 1 | 1009.5 |
| 20260506094503 | 45 | 26 | 2.0 | 7.0 | 0.04 | 0.84 | 0.49 | 1 | 1009.6 |
| 20260506093059 | 45 | 69 | 5.0 | 11.0 | 0.05 | 0.83 | 0.48 | 1 | 1009.0 |
| 20260506091555 | 45 | 63 | 4.0 | 10.0 | 0.06 | 0.82 | 0.47 | 1 | 1009.2 |
| 20260506090050 | 46 | 51 | 5.0 | 12.0 | 0.06 | 0.80 | 0.45 | 1 | 1009.1 |
| 20260506084546 | 46 | 72 | 4.0 | 11.0 | 0.07 | 0.80 | 0.45 | 1 | 1009.0 |
| 20260506083041 | 46 | 46 | 4.0 | 11.0 | 0.08 | 0.78 | 0.43 | 1 | 1009.4 |
| 20260506081537 | 46 | 44 | 4.0 | 6.0 | 0.09 | 0.76 | 0.41 | 1 | 1009.8 |
| 20260506073024 | 47 | 25 | 1.0 | 6.0 | 0.10 | 0.70 | 0.35 | 1 | 1009.6 |
| 20260506071523 | 48 | 73 | 3.0 | 9.0 | 0.09 | 0.66 | 0.31 | 1 | 1009.2 |
| 20260506061502 | 48 | 111 | 2.0 | 4.0 | 0.09 | 0.56 | 0.21 | 1 | 1009.3 |
| 20260506060121 | 48 | 110 | 2.0 | 6.0 | 0.10 | 0.54 | 0.19 | 1 | 1009.4 |
| 20260506044534 | 48 | 103 | 1.0 | 4.0 | 0.04 | 0.40 | 0.04 | 1 | 1010.6 |
| 20260506043030 | 48 | 110 | 2.0 | 5.0 | 0.02 | 0.37 | 0.01 | 1 | 1010.5 |
| 20260506041526 | 48 | 94 | 2.0 | 6.0 | 0.06 | 0.37 | 0.01 | 1 | 1010.4 |
| 20260506040022 | 48 | 66 | 1.0 | 4.0 | 0.05 | 0.36 | 0.00 | 1 | 1010.6 |
| 20260506034517 | 48 | 40 | 0.0 | 3.0 | 0.07 | 0.36 | 0.36 | 1 | 1010.7 |
| 20260506033016 | 48 | 66 | 1.0 | 4.0 | 0.06 | 0.35 | 0.35 | 1 | 1010.5 |
| 20260506031508 | 48 | 146 | 1.0 | 4.0 | 0.06 | 0.31 | 0.31 | 1 | 1010.7 |
| 20260506030012 | 48 | 92 | 2.0 | 5.0 | 0.10 | 0.31 | 0.31 | 1 | 1010.5 |
| 20260506024505 | 48 | 70 | 0.0 | 2.0 | 0.10 | 0.28 | 0.28 | 1 | 1011.0 |
| 20260506023101 | 47 | 57 | 0.0 | 3.0 | 0.11 | 0.28 | 0.28 | 1 | 1011.1 |
| 20260506021553 | 48 | 153 | 0.0 | 3.0 | 0.09 | 0.25 | 0.25 | 1 | 1011.6 |